Home > Weather > Provo > Past weeks

Flag for USA Past Weather in Provo, Utah, USA — Yesterday and Last 2 Weeks

Now
99 °F

Scattered clouds.


Feels Like: 94 °F
Forecast: 66 / 94 °F
Wind: 6 mph from Northwest

Location: Provo Municipal

Current Time: Jul 25, 2016 at 6:43:48 PM

Latest Report: Jul 25, 2016 at 4:47 PM


Visibility: 10 mi

Pressure: 30.00 "Hg (25.75 "Hg at 1386m altitude)

Humidity: 13%

Dew Point: 39 °F

Location of ProvoLocation

Past Weather in Provo — Graph

°F

Provo Temperature Yesterday

Maximum temperature yesterday: 93 °F (at 4:55 PM)
Minimum temperature yesterday: 57 °F (at 4:35 AM)
Average temperature yesterday: 71 °F

High & Low Weather Summary for the Past Weeks

 TemperatureHumidityPressure
High99 °F (Jul 22, 2:53 PM)77% (Jul 23, 6:15 AM)30.22 "Hg (Jul 23, 6:15 AM)
Low48 °F (Jul 12, 4:15 AM)11% (Jul 12, 3:49 PM)29.78 "Hg (Jul 10, 4:47 PM)
Average72 °F37%30.07 "Hg
* Reported Jul 10 4:47 PM — Jul 25 4:47 PM, Provo, Weather by CustomWeather, © 2016

Note: Actual official high and low records may vary slightly from our data, if they occured in-between our weather recording intervals... More about our weather records

Advertising

Provo Weather History for the Previous 24 Hours

Scroll right to see more
 ConditionsComfort  
Time TempWeatherWind HumidityBarometerVisibility
4:47 PM
Mon, Jul 25
99 °FScattered clouds.6 mph13%30.00 "Hg10 mi
2:58 PM97 °FScattered clouds.6 mph14%30.03 "Hg10 mi
1:47 PM97 °FScattered clouds.6 mph16%30.07 "Hg10 mi
12:54 PM93 °FScattered clouds.6 mph19%30.10 "Hg10 mi
11:53 AM91 °FScattered clouds.7 mph18%30.11 "Hg10 mi
10:48 AM86 °FPassing clouds.6 mph18%30.12 "Hg10 mi
9:48 AM79 °FPassing clouds.5 mph28%30.13 "Hg10 mi
8:48 AM73 °FScattered clouds.8 mph29%30.13 "Hg10 mi
7:53 AM68 °FScattered clouds.5 mph33%30.13 "Hg10 mi
6:49 AM61 °FPassing clouds.7 mph52%30.11 "Hg10 mi
6:35 AM64 °FClear.5 mph37%30.11 "Hg10 mi
6:15 AM66 °FClear.3 mph32%30.10 "Hg10 mi
5:55 AM63 °FClear.No wind45%30.10 "Hg10 mi
5:35 AM61 °FClear.No wind52%30.10 "Hg10 mi
5:15 AM63 °FClear.5 mph49%30.10 "Hg10 mi
4:55 AM63 °FClear.6 mph49%30.10 "Hg10 mi
4:35 AM63 °FClear.7 mph42%30.10 "Hg10 mi
4:15 AM66 °FClear.No wind35%30.09 "Hg10 mi
3:55 AM66 °FClear.No wind35%30.09 "Hg10 mi
3:35 AM66 °FClear.No wind35%30.09 "Hg10 mi
3:15 AM66 °FClear.No wind35%30.09 "Hg10 mi
2:55 AM64 °FClear.6 mph37%30.08 "Hg10 mi
2:35 AM64 °FClear.9 mph40%30.08 "Hg10 mi
2:15 AM64 °FClear.No wind40%30.08 "Hg10 mi
1:55 AM64 °FClear.No wind40%30.08 "Hg10 mi
1:35 AM68 °FClear.9 mph35%30.08 "Hg10 mi
1:15 AM66 °FClear.7 mph37%30.07 "Hg10 mi
12:55 AM72 °FClear.9 mph29%30.07 "Hg10 mi
12:35 AM66 °FClear.6 mph43%30.07 "Hg10 mi
12:15 AM70 °FClear.5 mph38%30.06 "Hg10 mi
11:55 PM
Sun, Jul 24
70 °FClear.8 mph38%30.06 "Hg10 mi
11:35 PM72 °FClear.5 mph36%30.06 "Hg10 mi
11:15 PM73 °FClear.7 mph47%30.06 "Hg10 mi
10:55 PM73 °FClear.No wind50%30.05 "Hg10 mi
10:35 PM73 °FClear.No wind53%30.05 "Hg10 mi
10:15 PM75 °FClear.5 mph50%30.05 "Hg10 mi
9:55 PM75 °FClear.5 mph54%30.04 "Hg7 mi
9:35 PM79 °FSunny.6 mph45%30.04 "Hg5 mi
9:15 PM81 °FSunny.8 mph37%30.04 "Hg10 mi
8:55 PM79 °FSunny.12 mph51%30.03 "Hg10 mi
7:48 PM86 °FPassing clouds.12 mph35%30.03 "Hg10 mi
6:48 PM90 °FPassing clouds.12 mph24%30.02 "Hg10 mi
Weather by CustomWeather, © 2016

See weather overviewHow to use our weather pages